EW1714 Weather Reports


Display with metric or nautical units.
time (UTC)temp
F
wind
direction
speed
MPH
gust
MPH
rain 1hr
in
rain 24hr
in
rain mn
in
humidity
%
barometer
mb
20260906133010 62 360 0.0 0.0 0.00 0.00 0.00 91 1016.2
20260906132506 62 360 0.0 2.0 0.00 0.00 0.00 91 1016.2
20260906132005 62 360 0.0 2.0 0.00 0.00 0.00 92 1016.1
20260906131523 62 360 0.0 2.0 0.00 0.00 0.00 92 1016.5
20260906131007 62 1 0.0 0.0 0.00 0.00 0.00 92 1016.4
20260906130509 61 1 0.0 0.0 0.00 0.00 0.00 94 1016.5
20260906130027 61 1 0.0 0.0 0.00 0.00 0.00 94 1016.6
20260906125510 61 1 0.0 0.0 0.00 0.00 0.00 94 1016.7
20260906125004 61 1 0.0 2.0 0.00 0.00 0.00 94 1016.7
20260906124510 61 1 0.0 2.0 0.00 0.00 0.00 94 1016.8
20260906124004 60 1 0.0 2.0 0.00 0.00 0.00 95 1016.8
20260906123503 60 1 0.0 0.0 0.00 0.00 0.00 95 1016.8
20260906123007 60 359 0.0 0.0 0.00 0.00 0.00 95 1016.7
20260906122504 60 356 0.0 3.0 0.00 0.00 0.00 95 1016.7
20260906122006 60 356 0.0 3.0 0.00 0.00 0.00 95 1016.6
20260906121512 60 354 0.0 0.0 0.00 0.00 0.00 95 1016.6
20260906121011 60 1 0.0 0.0 0.00 0.00 0.00 96 1016.6
20260906120506 60 1 0.0 0.0 0.00 0.00 0.00 96 1016.4
20260906120019 60 1 0.0 0.0 0.00 0.00 0.00 96 1016.4
20260906115510 60 1 0.0 0.0 0.00 0.00 0.00 96 1016.4
20260906115009 60 1 0.0 0.0 0.00 0.00 0.00 96 1016.3
20260906114528 59 1 0.0 0.0 0.00 0.00 0.00 96 1016.3
20260906114017 59 1 0.0 0.0 0.00 0.00 0.00 96 1016.2
20260906113512 59 1 0.0 0.0 0.00 0.00 0.00 96 1016.3
20260906113006 59 1 0.0 0.0 0.00 0.00 0.00 96 1016.2
20260906112502 59 1 0.0 0.0 0.00 0.00 0.00 96 1016.1
20260906112002 59 1 0.0 0.0 0.00 0.00 0.00 96 1016.0
20260906111510 59 1 0.0 0.0 0.00 0.00 0.00 96 1015.9
20260906111004 59 1 0.0 0.0 0.00 0.00 0.00 96 1015.9
20260906110506 59 1 0.0 0.0 0.00 0.00 0.00 96 1015.8
20260906110014 59 1 0.0 0.0 0.00 0.00 0.00 96 1015.8
20260906105508 59 1 0.0 0.0 0.00 0.00 0.00 96 1015.8
20260906105010 59 1 0.0 0.0 0.00 0.00 0.00 96 1015.8
20260906104525 58 1 0.0 0.0 0.00 0.00 0.00 95 1015.7
20260906104013 58 1 0.0 0.0 0.00 0.00 0.00 95 1015.6
20260906103511 58 4 0.0 0.0 0.00 0.00 0.00 95 1015.5
20260906103026 58 4 0.0 0.0 0.00 0.00 0.00 95 1015.5
20260906102514 58 4 0.0 0.0 0.00 0.00 0.00 95 1015.4
20260906102014 58 4 0.0 0.0 0.00 0.00 0.00 95 1015.3
20260906101506 59 4 0.0 0.0 0.00 0.00 0.00 95 1015.2
20260906101004 59 4 0.0 0.0 0.00 0.00 0.00 95 1015.2
20260906100503 59 4 0.0 0.0 0.00 0.00 0.00 95 1015.2
20260906100013 59 4 0.0 0.0 0.00 0.00 0.00 95 1015.2
20260906095506 59 4 0.0 0.0 0.00 0.00 0.00 95 1015.2
20260906095008 59 4 0.0 0.0 0.00 0.00 0.00 95 1015.1
20260906094518 59 4 0.0 0.0 0.00 0.00 0.00 95 1015.2
20260906094009 59 4 0.0 0.0 0.00 0.00 0.00 95 1015.0
20260906093510 59 4 0.0 0.0 0.00 0.00 0.00 95 1015.0
20260906093037 59 4 0.0 0.0 0.00 0.00 0.00 95 1015.0
20260906092516 59 4 0.0 0.0 0.00 0.00 0.00 95 1014.9
20260906092015 59 4 0.0 0.0 0.00 0.00 0.00 95 1014.9
20260906091528 59 4 0.0 0.0 0.00 0.00 0.00 95 1014.8
20260906091013 59 4 0.0 0.0 0.00 0.00 0.00 95 1014.9
20260906090517 59 4 0.0 0.0 0.00 0.00 0.00 95 1014.9
20260906090032 59 4 0.0 0.0 0.00 0.00 0.00 95 1014.9
20260906085504 60 4 0.0 0.0 0.00 0.00 0.00 95 1014.9
20260906085006 60 4 0.0 0.0 0.00 0.00 0.00 95 1014.9
20260906084515 60 4 0.0 0.0 0.00 0.00 0.00 95 1015.0
20260906084008 60 4 0.0 0.0 0.00 0.00 0.00 95 1014.9
20260906083509 60 4 0.0 0.0 0.00 0.00 0.00 95 1014.9
20260906083022 60 4 0.0 0.0 0.00 0.00 0.00 95 1014.9
20260906082515 60 4 0.0 0.0 0.00 0.00 0.00 95 1014.7
20260906082013 60 4 0.0 0.0 0.00 0.00 0.00 94 1014.5
20260906081527 60 4 0.0 0.0 0.00 0.00 0.00 94 1014.7
20260906081012 60 6 0.0 0.0 0.00 0.00 0.00 95 1014.6
20260906080513 61 4 0.0 0.0 0.00 0.00 0.00 95 1014.6
20260906080030 61 4 0.0 0.0 0.00 0.00 0.00 95 1014.7
20260906075519 61 20 0.0 0.0 0.00 0.00 0.00 95 1014.7
20260906075016 61 23 0.0 0.0 0.00 0.00 0.00 95 1014.6
20260906074534 61 23 0.0 0.0 0.00 0.00 0.00 95 1014.4
20260906074005 61 23 0.0 0.0 0.00 0.00 0.00 95 1014.3
20260906073508 61 23 0.0 0.0 0.00 0.00 0.00 95 1014.2
20260906073015 61 23 0.0 0.0 0.00 0.00 0.00 95 1014.2
20260906072508 61 23 0.0 0.0 0.00 0.00 0.00 95 1014.3
20260906072011 61 23 0.0 0.0 0.00 0.00 0.00 95 1014.1
20260906071503 61 23 0.0 0.0 0.00 0.00 0.00 95 1014.1
20260906071004 61 23 0.0 0.0 0.00 0.00 0.00 95 1014.1
20260906070506 61 94 0.0 0.0 0.00 0.00 0.00 95 1014.1
20260906070025 62 94 0.0 0.0 0.00 0.00 0.00 95 1014.1
20260906065506 62 94 0.0 0.0 0.00 0.00 0.00 95 1014.1
20260906065005 62 94 0.0 0.0 0.00 0.00 0.00 95 1014.1
20260906064511 62 94 0.0 0.0 0.00 0.00 0.00 95 1014.1
20260906064006 62 94 0.0 0.0 0.00 0.00 0.00 95 1014.0
20260906063506 62 94 0.0 0.0 0.00 0.00 0.00 95 1014.0
20260906063010 62 94 0.0 0.0 0.00 0.00 0.00 95 1013.9
20260906062509 62 94 0.0 0.0 0.00 0.00 0.00 95 1013.9
20260906062006 62 94 0.0 0.0 0.00 0.00 0.00 95 1014.0
20260906061516 62 94 0.0 0.0 0.00 0.00 0.00 95 1014.0
20260906061009 62 94 0.0 0.0 0.00 0.00 0.00 95 1014.0
20260906060504 62 94 0.0 0.0 0.00 0.00 0.00 95 1013.9
20260906060004 62 94 0.0 0.0 0.00 0.00 0.00 95 1013.9
20260906055503 62 94 0.0 0.0 0.00 0.00 0.00 95 1013.9
20260906055006 62 94 0.0 0.0 0.00 0.00 0.00 95 1013.8
20260906054503 62 94 0.0 0.0 0.00 0.00 0.00 95 1013.8
20260906054003 62 94 0.0 0.0 0.00 0.00 0.00 95 1013.8
20260906053504 62 94 0.0 0.0 0.00 0.00 0.00 95 1013.8
20260906053019 62 94 0.0 0.0 0.00 0.00 0.00 95 1013.8
20260906052506 62 94 0.0 0.0 0.00 0.00 0.00 95 1013.8
20260906052006 62 94 0.0 0.0 0.00 0.00 0.00 94 1013.9
20260906051515 62 94 0.0 0.0 0.00 0.00 0.00 94 1013.9
20260906051011 62 94 0.0 0.0 0.00 0.00 0.00 94 1013.9
20260906050509 62 94 0.0 0.0 0.00 0.00 0.00 94 1013.9
20260906050023 62 94 0.0 0.0 0.00 0.00 0.00 94 1014.0
20260906045512 62 94 0.0 0.0 0.00 0.00 0.00 94 1014.0
20260906045010 62 94 0.0 0.0 0.00 0.00 0.00 94 1014.0
20260906044503 62 94 0.0 0.0 0.00 0.00 0.00 94 1014.0
20260906044002 62 94 0.0 0.0 0.00 0.00 0.00 94 1014.0
20260906043504 62 94 0.0 0.0 0.00 0.00 0.00 94 1014.0
20260906043008 62 94 0.0 0.0 0.00 0.00 0.00 94 1014.1
20260906042503 62 94 0.0 0.0 0.00 0.00 0.00 94 1014.1
20260906042006 62 94 0.0 0.0 0.00 0.00 0.00 94 1014.0
20260906041513 63 94 0.0 0.0 0.00 0.00 0.00 94 1014.1
20260906041009 63 94 0.0 0.0 0.00 0.00 0.00 94 1014.1
20260906040508 63 94 0.0 0.0 0.00 0.00 0.00 94 1014.1
20260906040016 63 94 0.0 0.0 0.00 0.00 0.00 94 1014.1
20260906035510 63 94 0.0 0.0 0.00 0.00 0.00 94 1014.1
20260906035010 63 99 0.0 0.0 0.00 0.00 0.00 94 1014.1
20260906034527 63 99 0.0 0.0 0.00 0.00 0.00 94 1014.0
20260906034011 63 99 0.0 0.0 0.00 0.00 0.00 94 1014.0
20260906033512 63 99 0.0 0.0 0.00 0.00 0.00 94 1013.9
20260906033031 63 99 0.0 0.0 0.00 0.00 0.00 94 1013.9
20260906032505 63 99 0.0 0.0 0.00 0.00 0.00 93 1013.8
20260906032004 63 99 0.0 0.0 0.00 0.00 0.00 93 1013.8
20260906031507 63 53 0.0 0.0 0.00 0.00 0.00 93 1013.8
20260906031004 63 333 0.0 0.0 0.00 0.00 0.00 93 1013.8
20260906030505 63 330 0.0 0.0 0.00 0.00 0.00 93 1013.8
20260906030012 64 330 0.0 0.0 0.00 0.00 0.00 93 1013.8
20260906025509 64 330 0.0 0.0 0.00 0.00 0.00 93 1013.9
20260906025010 64 330 0.0 0.0 0.00 0.00 0.00 94 1014.0
20260906024518 64 330 0.0 0.0 0.00 0.00 0.00 93 1013.9
20260906024011 64 330 0.0 0.0 0.00 0.00 0.00 93 1013.9
20260906023512 64 330 0.0 0.0 0.00 0.00 0.00 93 1013.9
20260906023024 64 330 0.0 0.0 0.00 0.00 0.00 93 1013.8
20260906022514 64 330 0.0 0.0 0.00 0.00 0.00 93 1013.7
20260906022016 64 330 0.0 0.0 0.00 0.00 0.00 93 1013.7
20260906021530 64 330 0.0 0.0 0.00 0.00 0.00 93 1013.7
20260906021004 64 330 0.0 0.0 0.00 0.00 0.00 93 1013.8
20260906020504 64 330 0.0 0.0 0.00 0.00 0.00 93 1013.8
20260906020009 64 330 0.0 0.0 0.00 0.00 0.00 93 1013.8
20260906015510 64 330 0.0 0.0 0.00 0.00 0.00 93 1013.9
20260906015009 64 330 0.0 0.0 0.00 0.00 0.00 93 1013.9
20260906014521 64 330 0.0 0.0 0.00 0.00 0.00 93 1014.0
20260906014010 64 330 0.0 0.0 0.00 0.00 0.00 93 1014.0
20260906013513 64 330 0.0 0.0 0.00 0.00 0.00 92 1014.0
20260906013023 64 330 0.0 0.0 0.00 0.00 0.00 92 1013.9
20260906012512 64 330 0.0 0.0 0.00 0.00 0.00 92 1014.0
20260906012014 65 330 0.0 0.0 0.00 0.00 0.00 92 1013.9
20260906011527 65 330 0.0 0.0 0.00 0.00 0.00 92 1014.0
20260906011016 65 330 0.0 0.0 0.00 0.00 0.00 92 1014.0
20260906010516 65 330 0.0 0.0 0.00 0.00 0.00 92 1014.0
20260906010032 65 330 0.0 0.0 0.00 0.00 0.00 91 1014.0
20260906005516 65 330 0.0 0.0 0.00 0.00 0.00 91 1013.9
20260906005007 65 330 0.0 0.0 0.00 0.00 0.00 91 1013.8
20260906004513 65 330 0.0 0.0 0.00 0.00 0.00 91 1013.7
20260906004004 65 330 0.0 0.0 0.00 0.00 0.00 90 1013.7
20260906003506 65 330 0.0 0.0 0.00 0.00 0.00 90 1013.6
20260906003016 65 330 0.0 0.0 0.00 0.00 0.00 90 1013.6
20260906002509 65 330 0.0 0.0 0.00 0.00 0.00 89 1013.5
20260906002010 65 330 0.0 0.0 0.00 0.00 0.00 88 1013.5
20260906001525 66 330 0.0 0.0 0.00 0.00 0.00 88 1013.5
20260906001012 66 330 0.0 0.0 0.00 0.00 0.00 88 1013.5
20260906000518 66 330 0.0 0.0 0.00 0.00 0.00 87 1013.5
20260906000031 66 330 0.0 0.0 0.00 0.00 0.00 87 1013.5
20260905235513 66 330 0.0 0.0 0.00 0.00 0.00 87 1013.5
20260905235016 66 330 0.0 0.0 0.00 0.00 0.00 86 1013.5
20260905234535 66 330 0.0 0.0 0.00 0.00 0.00 86 1013.3
20260905234019 66 330 0.0 0.0 0.00 0.00 0.00 85 1013.2
20260905233506 66 330 0.0 0.0 0.00 0.00 0.00 85 1013.2
20260905233016 66 330 0.0 0.0 0.00 0.00 0.00 84 1013.2
20260905232507 66 330 0.0 0.0 0.00 0.00 0.00 84 1013.1
20260905232008 66 330 0.0 0.0 0.00 0.00 0.00 84 1013.0
20260905231522 66 330 0.0 0.0 0.00 0.00 0.00 84 1013.0
20260905231013 67 330 0.0 0.0 0.00 0.00 0.00 83 1013.0
20260905230513 67 330 0.0 0.0 0.00 0.00 0.00 83 1013.0
20260905230027 67 330 0.0 0.0 0.00 0.00 0.00 83 1012.9
20260905225513 67 330 0.0 0.0 0.00 0.00 0.00 82 1013.0
20260905225014 67 330 0.0 0.0 0.00 0.00 0.00 83 1012.9
20260905224530 67 330 0.0 0.0 0.00 0.00 0.00 83 1012.8
20260905224013 67 330 0.0 0.0 0.00 0.00 0.00 83 1012.7
20260905223518 67 330 0.0 0.0 0.00 0.00 0.00 83 1012.7
20260905223034 67 330 0.0 0.0 0.00 0.00 0.00 82 1012.6
20260905222522 67 330 0.0 0.0 0.00 0.00 0.00 83 1012.6
20260905222017 67 330 0.0 0.0 0.00 0.00 0.00 83 1012.5
20260905221531 67 330 0.0 0.0 0.00 0.00 0.00 83 1012.6
20260905221009 67 330 0.0 0.0 0.00 0.00 0.00 83 1012.7
20260905220509 67 330 0.0 0.0 0.00 0.00 0.00 82 1012.7
20260905220004 67 330 0.0 0.0 0.00 0.00 0.00 82 1012.5
20260905215504 67 330 0.0 0.0 0.00 0.00 0.00 83 1012.4
20260905215004 67 330 0.0 0.0 0.00 0.00 0.00 83 1012.4
20260905214505 67 330 0.0 0.0 0.00 0.00 0.00 82 1012.3
20260905214004 67 334 0.0 0.0 0.00 0.00 0.00 83 1012.3
20260905213505 67 330 0.0 0.0 0.00 0.00 0.00 83 1012.2
20260905213008 67 359 0.0 0.0 0.00 0.00 0.00 83 1012.0
20260905212505 67 359 0.0 0.0 0.00 0.00 0.00 83 1012.0
20260905212004 67 359 0.0 7.0 0.00 0.00 0.00 83 1011.9
20260905211513 67 359 0.0 7.0 0.00 0.00 0.00 82 1011.9
20260905211006 67 359 0.0 0.0 0.00 0.00 0.00 82 1011.9
20260905210508 68 359 0.0 7.0 0.00 0.00 0.00 81 1011.9
20260905210026 68 359 0.0 7.0 0.00 0.00 0.00 81 1011.8
20260905205511 69 1 0.0 7.0 0.00 0.00 0.00 81 1011.8
20260905205012 69 359 0.0 11.0 0.00 0.00 0.00 79 1011.8
20260905204527 70 51 3.0 11.0 0.00 0.00 0.00 76 1011.8
20260905204003 71 58 1.0 10.0 0.00 0.00 0.00 73 1011.7
20260905203503 72 359 1.0 10.0 0.00 0.00 0.00 71 1011.6
20260905203031 73 354 1.0 10.0 0.00 0.00 0.00 69 1011.5
20260905202503 74 338 1.0 10.0 0.00 0.00 0.00 69 1011.4
20260905202004 75 341 0.0 9.0 0.00 0.00 0.00 68 1011.2
20260905201519 75 360 0.0 3.0 0.00 0.00 0.00 68 1011.2
20260905201006 76 1 0.0 3.0 0.00 0.00 0.00 67 1011.1
20260905200508 76 4 0.0 3.0 0.00 0.00 0.00 66 1011.0
20260905200018 77 64 0.0 0.0 0.00 0.00 0.00 64 1011.0
20260905195507 78 146 0.0 0.0 0.00 0.00 0.00 65 1010.9
20260905195010 78 148 0.0 0.0 0.00 0.00 0.00 63 1010.8
20260905194526 78 138 0.0 0.0 0.00 0.00 0.00 66 1010.8
20260905194012 77 201 0.0 1.0 0.00 0.00 0.00 71 1010.8
20260905193512 76 201 0.0 1.0 0.00 0.00 0.00 72 1010.8
20260905193030 74 201 0.0 0.0 0.00 0.00 0.00 77 1010.9
20260905192506 74 201 0.0 1.0 0.00 0.00 0.00 74 1011.1
20260905192003 74 201 0.0 1.0 0.00 0.00 0.00 74 1011.0
20260905191509 75 201 0.0 0.0 0.00 0.00 0.00 73 1011.0
20260905191006 75 201 0.0 1.0 0.00 0.00 0.00 72 1011.0
20260905190504 76 201 0.0 2.0 0.00 0.00 0.00 70 1011.0
20260905190013 77 333 0.0 6.0 0.00 0.00 0.00 66 1011.0
20260905185507 77 360 0.0 6.0 0.00 0.00 0.00 65 1011.0
20260905185008 76 126 1.0 5.0 0.00 0.00 0.00 65 1011.0
20260905184521 75 360 0.0 3.0 0.00 0.00 0.00 68 1011.0
20260905184009 74 14 0.0 0.0 0.00 0.00 0.00 70 1011.0
20260905183512 74 14 0.0 1.0 0.00 0.00 0.00 69 1011.0
20260905183027 74 14 0.0 2.0 0.00 0.00 0.00 68 1011.1
20260905182514 74 34 0.0 3.0 0.00 0.00 0.00 68 1011.1
20260905182015 74 34 0.0 4.0 0.00 0.00 0.00 67 1011.1
20260905181527 75 51 0.0 7.0 0.00 0.00 0.00 66 1011.1
20260905181005 76 359 1.0 7.0 0.00 0.00 0.00 64 1011.1
20260905180506 76 21 0.0 5.0 0.00 0.00 0.00 63 1011.1
20260905180010 76 4 0.0 7.0 0.00 0.00 0.00 63 1011.0
20260905175506 77 338 0.0 8.0 0.00 0.00 0.00 61 1011.0
20260905175005 77 16 0.0 8.0 0.00 0.00 0.00 61 1010.9
20260905174520 77 360 1.0 5.0 0.00 0.00 0.00 61 1010.9
20260905174011 76 335 0.0 3.0 0.00 0.00 0.00 63 1010.8
20260905173510 76 360 0.0 3.0 0.00 0.00 0.00 66 1010.8
20260905173030 76 1 0.0 0.0 0.00 0.00 0.00 64 1010.8
20260905172511 76 1 0.0 5.0 0.00 0.00 0.00 63 1010.8
20260905172014 77 1 0.0 5.0 0.00 0.00 0.00 62 1010.7
20260905171526 77 349 0.0 7.0 0.00 0.00 0.00 61 1010.6
20260905171015 78 6 1.0 7.0 0.00 0.00 0.00 61 1010.6
20260905170515 77 356 0.0 6.0 0.00 0.00 0.00 62 1010.6
20260905170029 77 1 1.0 6.0 0.00 0.00 0.00 65 1010.6
20260905165514 76 41 0.0 4.0 0.00 0.00 0.00 67 1010.6
20260905165006 75 32 0.0 4.0 0.00 0.00 0.00 66 1010.7
20260905164532 75 343 0.0 2.0 0.00 0.00 0.00 66 1010.7
20260905164008 75 64 0.0 7.0 0.00 0.00 0.00 66 1010.6
20260905163508 75 8 1.0 8.0 0.00 0.00 0.00 67 1010.6
20260905163025 75 330 0.0 8.0 0.00 0.00 0.00 69 1010.6
20260905162516 74 359 0.0 6.0 0.00 0.00 0.00 68 1010.8
20260905162011 74 345 1.0 7.0 0.00 0.00 0.00 67 1010.8
20260905161527 74 359 2.0 8.0 0.00 0.00 0.00 67 1010.8
20260905161013 74 357 2.0 8.0 0.00 0.00 0.00 67 1010.8
20260905160514 75 360 1.0 7.0 0.00 0.00 0.00 65 1010.9
20260905160030 75 359 2.0 7.0 0.00 0.00 0.00 64 1010.9
20260905155516 75 1 0.0 4.0 0.00 0.00 0.00 67 1010.9
20260905155013 75 22 0.0 0.0 0.00 0.00 0.00 69 1010.9
20260905154531 75 21 0.0 1.0 0.00 0.00 0.00 69 1010.9
20260905154016 75 21 0.0 6.0 0.00 0.00 0.00 67 1011.0
20260905153508 76 27 0.0 6.0 0.00 0.00 0.00 67 1011.0
20260905153018 76 31 1.0 6.0 0.00 0.00 0.00 67 1011.0
20260905152507 76 360 0.0 6.0 0.00 0.00 0.00 67 1010.9
20260905152010 76 56 1.0 6.0 0.00 0.00 0.00 71 1010.9
20260905151523 75 29 0.0 7.0 0.00 0.00 0.00 70 1011.0
20260905151011 75 55 1.0 7.0 0.00 0.00 0.00 70 1011.0
20260905150512 74 8 0.0 5.0 0.00 0.00 0.00 73 1010.9
20260905150028 73 359 0.0 3.0 0.00 0.00 0.00 75 1010.9
20260905145515 72 342 0.0 4.0 0.00 0.00 0.00 77 1010.9
20260905145016 71 341 0.0 4.0 0.00 0.00 0.00 77 1011.0
20260905144530 71 342 0.0 3.0 0.00 0.00 0.00 78 1011.1
20260905144014 70 359 0.0 4.0 0.00 0.00 0.00 78 1011.1
20260905143517 70 359 0.0 4.0 0.00 0.00 0.00 79 1011.1
20260905143033 70 1 0.0 3.0 0.00 0.00 0.00 79 1011.1
20260905142518 70 11 0.0 2.0 0.00 0.00 0.00 80 1011.1
20260905142020 69 11 0.0 2.0 0.00 0.00 0.00 80 1011.1
20260905141516 69 11 0.0 3.0 0.00 0.00 0.00 80 1011.2
20260905141010 69 11 0.0 3.0 0.00 0.00 0.00 79 1011.2
20260905140513 69 1 0.0 0.0 0.00 0.00 0.00 80 1011.2
20260905140026 69 348 0.0 0.0 0.00 0.00 0.00 80 1011.2
20260905135513 69 348 0.0 0.0 0.00 0.00 0.00 80 1011.1
20260905135012 69 360 0.0 7.0 0.00 0.00 0.00 80 1011.1
20260905134529 69 360 0.0 8.0 0.00 0.00 0.00 80 1011.0
20260905134015 69 311 1.0 8.0 0.00 0.00 0.00 82 1011.0
20260905133516 68 6 0.0 5.0 0.00 0.00 0.00 82 1010.9